Flag for Cambodia Weather past 2 weeks in Battambang, Cambodia

Now
81 °F

Light rain. Partly cloudy.


Feels Like: 87 °F
Forecast: 78 / 91 °F
Wind: 3 mph from Southwest

Location: Siemreap

Current Time: Sep 1, 2015 at 9:44:08 PM

Latest Report: Sep 1, 2015 at 8:30 PM


Visibility: 5 mi

Pressure: 29.74 "Hg

Humidity: 89%

Dew point: 77 °F

Location of BattambangLocation

Historic Weather in Battambang — Graph

°F

Battambang temperature yesterday

Maximum temperature yesterday: 90 °F (at 3:00 PM)
Minimum temperature yesterday: 75 °F (at 6:00 PM)
Average temperature yesterday: 81 °F

Past Weeks' High & Low Weather Summary

 TemperatureHumidityPressure
High95 °F (Aug 19, 5:00 PM)100% (Aug 18, 4:30 PM)29.86 "Hg (Aug 18, 4:30 PM)
Low75 °F (Aug 26, 5:30 PM)47% (Aug 19, 4:00 PM)29.59 "Hg (Aug 22, 3:30 PM)
Average84 °F79%29.73 "Hg
* Reported Aug 17 8:00 PM — Sep 1 8:30 PM, Battambang, Weather by CustomWeather, © 2015

Note: Actual official high and low records may vary slightly from our data, if they occured in-between our weather recording intervals... More about our weather records

Advertising

Battambang weather history for previous 24 hours

 ConditionsComfort  
Time TempWeatherWind HumidityBarometerVisibility
8:30 PM
Tue, Sep 1
81 °FLight rain. Partly cloudy.3 mph89%29.74 "Hg5 mi
8:00 PM81 °FLight rain. Partly cloudy.5 mph89%29.74 "Hg5 mi
7:30 PM81 °FLight rain. Partly cloudy.5 mph94%29.74 "Hg5 mi
7:00 PM81 °FLight rain. Partly cloudy.3 mph94%29.71 "Hg5 mi
6:30 PM81 °FLight rain. Partly cloudy.3 mph94%29.71 "Hg5 mi
6:00 PM79 °FLight rain. Broken clouds.3 mph94%29.71 "Hg5 mi
5:30 PM79 °FLight rain. Broken clouds.5 mph89%29.71 "Hg5 mi
5:00 PM79 °FLight rain. Broken clouds.8 mph89%29.71 "Hg5 mi
4:30 PM79 °FLight rain. Broken clouds.16 mph84%29.71 "Hg6 mi
4:00 PM84 °FBroken clouds.10 mph79%29.68 "Hg6 mi
3:30 PM84 °FBroken clouds.7 mph79%29.68 "Hg6 mi
3:00 PM86 °FBroken clouds.10 mph75%29.68 "Hg6 mi
2:00 PM86 °FBroken clouds.6 mph75%29.71 "HgN/A
1:30 PM86 °FBroken clouds.9 mph75%29.71 "HgN/A
1:00 PM88 °FRain. Broken clouds.7 mph66%29.74 "Hg6 mi
12:30 PM88 °FBroken clouds.6 mph66%29.74 "HgN/A
12:00 PM90 °FScattered clouds.9 mph63%29.74 "HgN/A
11:30 AM88 °FScattered clouds.9 mph70%29.74 "HgN/A
10:30 AM86 °FScattered clouds.6 mph75%29.77 "HgN/A
10:00 AM84 °FScattered clouds.6 mph79%29.77 "HgN/A
9:30 AM84 °FScattered clouds.6 mph79%29.77 "HgN/A
9:00 AM82 °FScattered clouds.6 mph84%29.77 "HgN/A
8:30 AM81 °FScattered clouds.5 mph94%29.77 "HgN/A
8:00 AM81 °FScattered clouds.6 mph89%29.77 "Hg6 mi
7:30 AM79 °FScattered clouds.6 mph94%29.74 "Hg6 mi
7:00 AM79 °FScattered clouds.6 mph94%29.74 "Hg6 mi
1:00 AM79 °FPassing clouds.No wind100%29.80 "Hg5 mi
12:30 AM79 °FPassing clouds.No wind100%29.80 "Hg5 mi
12:00 AM79 °FPassing clouds.No wind100%29.80 "Hg5 mi
11:30 PM
Mon, Aug 31
79 °FPassing clouds.No wind94%29.80 "Hg5 mi
11:00 PM79 °FPassing clouds.3 mph94%29.80 "Hg5 mi
10:30 PM79 °FPassing clouds.3 mph94%29.80 "Hg5 mi
10:00 PM79 °FPassing clouds.3 mph94%29.80 "Hg5 mi
9:30 PM79 °FPassing clouds.2 mph100%29.80 "Hg5 mi
9:00 PM79 °FPassing clouds.3 mph100%29.80 "Hg5 mi
Weather by CustomWeather, © 2015

See weather overviewHow to use our weather pages